Location: Bois-Aubert
(49.5023°N, 1.8360°E)
Time: 17:32:08
(UTC+00:00)

Daily predictions for brighter satellites

Satellite Brightness Start Highest point End
(mag) Time Altitude Azimuth Time Altitude Azimuth Time Altitude Azimuth
BREEZE-M DEB (TANK) 4.3 16:47:12 10° SW 16:52:07 69° SSE 17:10:22 10° ENE
Cosmos 2297 4.1 16:47:39 10° NNW 16:53:17 72° WSW 16:58:55 10° SSE
Cosmos 1190 Rocket 4.2 16:48:26 10° NNW 16:53:37 78° WSW 16:58:47 10° SSE
SL-4 R/B 3.9 16:51:15 10° W 16:54:49 32° SW 16:58:18 10° SSE
Cosmos 1624 Rocket 4.2 16:50:29 10° S 16:55:35 55° ESE 17:00:46 10° NNE
NOSS 2-3 (C) 4.2 16:51:00 10° NW 16:55:56 76° NE 17:02:50 10° SE
SL-14 R/B 3.8 16:54:50 10° SSW 16:58:40 62° WNW 17:02:33 10° N
Cosmos 2263 4.5 16:54:38 10° NNW 17:00:21 78° WSW 17:05:58 10° SSE
IRS-1C 4.2 16:59:39 10° SE 17:04:50 56° ENE 17:10:02 10° N
Thor Agena Rocket 3.4 17:01:35 10° SSE 17:06:37 80° ENE 17:11:39 10° NNW
Cosmos 2237 Rocket 4.0 17:02:52 10° W 17:07:26 25° NW 17:12:03 10° NNE
USA 276 4.0 17:06:32 10° SSE 17:07:35 12° SE 17:08:41 10° ESE
NOSS 2-3 (E) 4.5 17:02:39 10° NW 17:07:43 80° SW 17:14:36 10° SE
SPOT 1/Viking Rocket 4.0 17:03:11 10° SE 17:07:52 37° ENE 17:12:34 10° N
Cosmos 676 Rocket 4.0 17:02:39 10° NNW 17:07:52 88° ENE 17:13:05 10° SSE
Cosmos 1151 Rocket 4.3 17:06:39 10° SW 17:10:41 42° WNW 17:14:46 10° N
SL-16 R/B 2.8 17:05:50 10° SW 17:11:25 58° WNW 17:17:02 10° NNE
SL-16 R/B 2.7 17:05:51 10° NNE 17:12:02 78° WNW 17:18:11 10° SSW
CORIOLIS 4.3 17:08:38 10° SSE 17:14:02 85° WSW 17:19:31 10° NNW
NOSS 3-4 (A) 3.9 17:09:50 10° S 17:14:33 34° ESE 17:19:30 11° NE
NOSS 3-4 (C) 3.9 17:09:59 10° S 17:14:42 34° ESE 17:19:40 11° NE
BREEZE-M DEB (TANK) 1.8 17:14:15 10° W 17:17:12 86° S 17:19:27 11° E
Cosmos 1703 3.6 17:17:08 10° SSE 17:20:06 31° E 17:23:05 10° NNE
SAR-Lupe-4 3.9 17:17:29 10° SE 17:20:52 41° ENE 17:24:17 10° N
CZ-2D R/B 2.7 17:18:22 10° SSE 17:21:27 60° ENE 17:24:34 10° N
ATLAS 3B R/B 4.0 17:14:48 10° W 17:21:55 37° NNW 17:29:09 10° NE
SJ-12 3.7 17:18:13 10° SSE 17:21:59 65° ENE 17:25:48 10° N
Cosmos 2366 rocket 4.0 17:15:53 10° N 17:22:13 68° ENE 17:28:32 10° SSE
Cosmos 1484 Rocket 4.5 17:21:48 10° SSW 17:24:49 32° W 17:27:52 10° NNW
USA 59 Rocket 1.2 17:22:45 10° N 17:24:52 16° NNE 17:26:01 14° NE
ATLAS 5 CENTAUR R/B 0.5 17:21:55 10° SW 17:24:53 89° NW 17:27:38 13° NE
Meteor 1-23 Rocket 4.5 17:19:52 10° SSE 17:25:17 48° E 17:30:40 10° NNE
COSMO-SKYMED 1 3.9 17:22:52 12° NE 17:25:19 19° E 17:28:15 10° SE
Cosmos 1452 Rocket 4.3 17:21:22 10° SSE 17:25:52 30° E 17:30:15 11° NE
Cosmos 1633 Rocket 3.1 17:22:09 10° N 17:26:29 85° W 17:30:47 10° S
Cosmos 2218 Rocket 4.0 17:20:11 10° N 17:26:36 68° ENE 17:32:56 10° SSE
Cosmos 1656 4.1 17:26:58 10° NNW 17:32:16 40° NE 17:37:27 10° ESE
Meteor 1-16 Rocket 4.1 17:27:54 10° N 17:33:07 55° ENE 17:38:24 10° SSE
Cosmos 332 Rocket 3.7 17:30:06 10° NNW 17:34:54 75° ENE 17:39:41 10° SSE
Cosmos 1666 Rocket 4.3 17:31:47 10° NNW 17:36:09 57° W 17:40:29 10° S
Meteor 1-21 4.3 17:31:26 10° S 17:36:52 54° E 17:42:19 10° NNE
Cosmos 1953 2.0 17:33:55 10° N 17:37:39 79° E 17:41:21 10° SSE
Resurs 1-3 3.9 17:34:28 10° SE 17:38:29 40° ENE 17:42:30 10° N
ISS -2.7 17:36:54 10° SSW 17:39:55 32° SSE 17:41:35 20° E
UNK 4.0 17:37:37 10° N 17:42:08 71° WNW 17:46:37 10° SSW
Cosmos 2341 Rocket 4.1 17:35:48 10° N 17:42:10 84° W 17:48:27 10° S
BREEZE-M DEB (TANK) 3.0 17:36:43 10° W 17:42:16 81° NNW 17:45:24 19° ENE
Cosmos 1980 Rocket 3.8 17:40:02 10° N 17:43:05 15° NNE 17:44:09 14° NE
BREEZE-M DEB (TANK) 3.3 17:40:55 10° W 17:43:30 51° SSW 17:51:43 10° ESE
Cosmos 1340 Rocket 3.2 17:40:07 10° N 17:43:39 34° ENE 17:47:11 10° SE
ERS-1 4.5 17:38:58 10° SSE 17:43:56 86° WSW 17:48:59 10° NNW
Cosmos 1328 Rocket 4.0 17:40:34 10° SSW 17:44:53 62° WNW 17:49:16 10° N
NOSS 3-1 (C) 4.5 17:39:18 10° NW 17:45:06 35° NNE 17:50:01 18° E
MOS 1 Rocket 4.0 17:40:12 10° S 17:45:26 64° W 17:50:28 10° NNW
Spot 4 Rocket 4.2 17:42:00 10° SE 17:46:53 47° ENE 17:51:48 10° N
USA 215 4.2 17:44:40 17° E 17:48:38 30° SE 17:54:12 10° S
IRS-P3 4.1 17:43:31 10° SSE 17:48:50 89° E 17:54:11 10° NNW
Cosmos 1959 Rocket 4.5 17:43:45 10° N 17:49:54 90° ENE 17:56:04 10° S
Nadezhda 3 Rocket 4.4 17:48:41 10° SSE 17:54:18 39° E 17:59:57 10° NNE
SKYMED 2 3.6 17:51:01 10° NNE 17:55:21 58° E 17:59:37 10° S
Meteor 1-12 Rocket 4.1 17:51:17 10° N 17:56:58 76° ENE 18:02:36 10° SSE
Okean 3 3.9 17:56:13 10° SSE 17:59:54 34° E 18:01:04 28° ENE
COSMOS 2455 3.8 17:56:13 10° NNW 18:01:19 27° NNE 18:03:11 23° ENE
NOSS 2-1 (D) 4.2 17:59:12 10° NNW 18:01:40 24° NNE 18:01:40 24° NNE
Cosmos 2056 Rocket 4.4 17:57:10 10° SW 18:02:05 45° WNW 18:07:00 10° NNE
SJ 16-02 4.4 18:01:11 10° NW 18:04:02 18° W 18:06:54 10° SW
PSLV R/B 3.5 18:01:24 10° SSE 18:05:25 52° ENE 18:09:30 10° N
CZ-4 R/B 4.5 18:01:52 10° S 18:05:49 76° WSW 18:09:48 10° NNW
ARIANE 5 R/B 3.7 18:02:07 10° S 18:07:08 47° W 18:12:11 10° NNW
Cosmos 1697 Rocket 3.5 18:03:27 10° NNW 18:08:28 31° NE 18:09:49 28° ENE
YAOGAN 1 2.4 18:05:43 10° SSE 18:09:58 79° ENE 18:14:15 10° NNW
Cosmos 1515 Rocket 3.6 18:05:34 10° SSW 18:09:59 81° WNW 18:14:26 10° N
Cosmos 1603 3.6 18:05:34 10° SSW 18:11:13 85° ESE 18:15:42 17° NNE
Cosmos 1833 Rocket 3.8 18:14:50 10° SSE 18:18:29 24° ESE 18:18:29 24° ESE
Resurs 01 Rocket 1.8 18:15:40 10° SE 18:19:50 46° ENE 18:24:02 10° N
Okean 2 3.1 18:19:21 10° S 18:23:12 90° E 18:25:32 23° N
SL-24 R/B - RUBIN 2 3.7 18:19:43 10° NW 18:24:04 71° SW 18:27:55 13° SSE
USA 267 3.3 18:20:26 27° E 18:24:10 68° NNE 18:30:40 10° WNW
RESURS DK-1 2.2 18:28:04 10° SSW 18:32:00 63° ESE 18:32:05 63° ESE
Cosmos 1943 4.4 18:28:41 10° WSW 18:33:56 39° NW 18:38:48 12° NNE
Cosmos 292 Rocket 4.1 18:29:32 10° NNW 18:34:12 63° WSW 18:38:49 10° S
BREEZE-M DEB (TANK) 3.1 18:35:06 10° SW 18:37:48 59° SSE 18:38:15 54° ESE
Cosmos 1933 Rocket 4.4 18:33:47 10° NNW 18:38:03 52° W 18:42:16 10° S
Cosmos 1331 Rocket 4.5 18:33:29 10° SW 18:38:32 58° WNW 18:42:22 18° NNE
USA 276 4.0 18:37:39 10° WSW 18:38:41 22° SW 18:38:41 22° SW
CZ-2D R/B 4.2 18:36:47 10° S 18:40:30 47° W 18:44:13 10° NNW
Cosmos 1605 Rocket 4.3 18:37:44 10° N 18:43:50 43° ENE 18:43:51 43° ENE
Cosmos 2360 4.2 18:41:15 10° NNW 18:47:00 81° WSW 18:52:21 12° SSE
Cosmos 1302 Rocket 3.9 18:43:44 10° SSW 18:48:59 82° ESE 18:50:34 47° NNE
Cosmos 1339 Rocket 4.3 18:47:37 10° S 18:53:47 79° E 18:59:56 10° NNE
Cosmos 2333 Rocket 4.4 18:51:30 10° N 18:52:46 12° NNE 18:52:46 12° NNE
COSMO-SKYMED 1 3.3 18:59:10 29° NNW 19:00:53 48° WNW 19:04:51 10° SW
Cosmos 2322 Rocket 4.5 19:01:30 10° N 19:01:47 10° N 19:01:47 10° N
NOSS 3-4 (A) 3.7 18:59:51 10° WSW 19:05:05 53° NW 19:06:57 38° NNE
NOSS 3-4 (C) 3.7 18:59:58 10° WSW 19:05:14 53° NW 19:07:06 38° NNE
CARTOSAT-1 4.4 19:01:20 10° S 19:05:25 48° W 19:09:32 10° NNW
Cosmos 1452 Rocket 4.4 19:02:40 10° SW 19:07:43 46° WNW 19:10:32 24° N
ATLAS 5 CENTAUR R/B 3.5 19:05:47 10° WNW 19:07:02 14° NW 19:07:02 14° NW
DNEPR-1 R/B 4.3 19:06:33 10° WSW 19:10:41 46° NW 19:10:41 46° NW
USA 59 Rocket 1.7 19:10:26 10° NW 19:11:41 22° NW 19:11:41 22° NW
ATLAS 3B R/B 4.1 19:08:19 10° NW 19:14:58 28° N 19:16:43 26° NNE
ISS -1.3 19:13:11 10° W 19:14:32 22° W 19:14:32 22° W
Cosmos 1934 Rocket 4.2 19:14:14 10° NNW 19:20:19 69° W 19:26:28 10° S
NOSS 3-1 (A) 4.2 19:14:35 10° NW 19:20:50 48° NNE 19:20:50 48° NNE
Cosmos 1980 Rocket 3.4 19:23:00 10° NNW 19:25:55 29° N 19:25:55 29° N
USA 215 3.1 19:32:02 82° ESE 19:32:15 84° SSE 19:38:48 10° SW
NOSS 3-1 (C) 3.8 19:29:47 10° NW 19:36:44 85° NE 19:37:23 77° ESE
BREEZE-M DEB (TANK) 3.8 19:38:54 10° W 19:43:07 89° S 19:43:30 82° E
COSMOS 2455 3.4 19:41:56 10° NW 19:46:20 51° NW 19:46:20 51° NW
Cosmos 1697 Rocket 3.5 19:47:12 10° NW 19:51:35 48° WNW 19:51:35 48° WNW
Resurs 01 Rocket 3.9 19:53:04 10° SW 19:56:26 21° W 19:59:49 10° NW
Cosmos 1833 Rocket 4.1 19:57:12 10° SW 20:00:13 32° SW 20:00:13 32° SW
USA 267 3.8 20:07:46 53° WSW 20:07:46 53° WSW 20:13:44 10° WNW
